| time (UTC) | temp F | wind direction | speed MPH | gust MPH | rain 1hr in | rain 24hr in | rain mn in | humidity % | barometer mb |
| 20260502170507 | 60 | 170 | 3.0 | 8.0 | 0.00 | 0.00 | 0.00 | 39 | 1016.4 |
| 20260502163937 | 60 | 167 | 3.0 | 7.0 | 0.00 | 0.00 | 0.00 | 39 | 1016.8 |
| 20260502163704 | 59 | 156 | 3.0 | 8.0 | 0.00 | 0.00 | 0.00 | 42 | 1016.8 |
| 20260502162932 | 59 | 239 | 5.0 | 8.0 | 0.00 | 0.00 | 0.00 | 39 | 1016.9 |
| 20260502162705 | 59 | 200 | 4.0 | 8.0 | 0.00 | 0.00 | 0.00 | 39 | 1016.9 |
| 20260502161933 | 59 | 218 | 4.0 | 7.0 | 0.00 | 0.00 | 0.00 | 39 | 1016.9 |
| 20260502161703 | 59 | 186 | 3.0 | 7.0 | 0.00 | 0.00 | 0.00 | 41 | 1017.0 |
| 20260502161207 | 58 | 192 | 3.0 | 7.0 | 0.00 | 0.00 | 0.00 | 39 | 1017.3 |
| 20260502160433 | 58 | 264 | 3.0 | 8.0 | 0.00 | 0.00 | 0.00 | 39 | 1017.3 |
| 20260502151931 | 56 | 166 | 3.0 | 8.0 | 0.00 | 0.00 | 0.00 | 46 | 1017.7 |
| 20260502151431 | 56 | 210 | 1.0 | 5.0 | 0.00 | 0.00 | 0.00 | 49 | 1017.8 |
| 20260502150926 | 55 | 142 | 1.0 | 5.0 | 0.00 | 0.00 | 0.00 | 51 | 1017.9 |
| 20260502150419 | 55 | 175 | 2.0 | 5.0 | 0.00 | 0.00 | 0.00 | 51 | 1017.9 |
| 20260502130359 | 39 | 172 | 0.0 | 2.0 | 0.00 | 0.00 | 0.00 | 85 | 1018.6 |
| 20260502130126 | 38 | 146 | 0.0 | 1.0 | 0.00 | 0.00 | 0.00 | 90 | 1018.6 |
| 20260502123358 | 33 | 150 | 0.0 | 0.0 | 0.00 | 0.00 | 0.00 | 94 | 1018.6 |
| 20260502122857 | 33 | 150 | 0.0 | 0.0 | 0.00 | 0.00 | 0.00 | 95 | 1018.5 |
| 20260502122358 | 32 | 150 | 0.0 | 0.0 | 0.00 | 0.00 | 0.00 | 95 | 1018.5 |
| 20260502121857 | 32 | 150 | 0.0 | 0.0 | 0.00 | 0.00 | 0.00 | 95 | 1018.5 |
| 20260502121358 | 32 | 150 | 0.0 | 0.0 | 0.00 | 0.00 | 0.00 | 95 | 1018.5 |
| 20260502121128 | 31 | 150 | 0.0 | 0.0 | 0.00 | 0.00 | 0.00 | 95 | 1018.5 |
| 20260502120355 | 31 | 150 | 0.0 | 0.0 | 0.00 | 0.00 | 0.00 | 95 | 1018.5 |
| 20260502115855 | 31 | 150 | 0.0 | 0.0 | 0.00 | 0.00 | 0.00 | 95 | 1018.5 |
| 20260502115354 | 30 | 150 | 0.0 | 0.0 | 0.00 | 0.00 | 0.00 | 95 | 1018.5 |
| 20260502114859 | 29 | 150 | 0.0 | 0.0 | 0.00 | 0.00 | 0.00 | 95 | 1018.5 |
| 20260502114853 | 30 | 150 | 0.0 | 0.0 | 0.00 | 0.00 | 0.00 | 95 | 1018.6 |
| 20260502113853 | 29 | 150 | 0.0 | 0.0 | 0.00 | 0.00 | 0.00 | 95 | 1018.6 |
| 20260502113355 | 29 | 150 | 0.0 | 0.0 | 0.00 | 0.00 | 0.00 | 95 | 1018.5 |
| 20260502112855 | 29 | 150 | 0.0 | 0.0 | 0.00 | 0.00 | 0.00 | 94 | 1018.5 |
| 20260502112349 | 29 | 150 | 0.0 | 0.0 | 0.00 | 0.00 | 0.00 | 94 | 1018.5 |
| 20260502111850 | 29 | 150 | 0.0 | 0.0 | 0.00 | 0.00 | 0.00 | 94 | 1018.4 |
| 20260502111349 | 28 | 150 | 0.0 | 0.0 | 0.00 | 0.00 | 0.00 | 94 | 1018.4 |
| 20260502110849 | 28 | 150 | 0.0 | 0.0 | 0.00 | 0.00 | 0.00 | 94 | 1018.4 |
| 20260502110351 | 28 | 150 | 0.0 | 0.0 | 0.00 | 0.00 | 0.00 | 94 | 1018.4 |
| 20260502105849 | 28 | 150 | 0.0 | 0.0 | 0.00 | 0.00 | 0.00 | 94 | 1018.3 |
| 20260502105625 | 28 | 150 | 0.0 | 0.0 | 0.00 | 0.00 | 0.00 | 94 | 1018.4 |
| 20260502105351 | 28 | 150 | 0.0 | 0.0 | 0.00 | 0.00 | 0.00 | 94 | 1018.3 |
| 20260502104351 | 28 | 150 | 0.0 | 0.0 | 0.00 | 0.00 | 0.00 | 94 | 1018.3 |
| 20260502103846 | 28 | 150 | 0.0 | 0.0 | 0.00 | 0.00 | 0.00 | 94 | 1018.3 |
| 20260502103346 | 28 | 150 | 0.0 | 0.0 | 0.00 | 0.00 | 0.00 | 94 | 1018.3 |
| 20260502102851 | 28 | 150 | 0.0 | 0.0 | 0.00 | 0.00 | 0.00 | 93 | 1018.3 |
| 20260502102846 | 28 | 150 | 0.0 | 0.0 | 0.00 | 0.00 | 0.00 | 93 | 1018.3 |
| 20260502102119 | 28 | 150 | 0.0 | 0.0 | 0.00 | 0.00 | 0.00 | 93 | 1018.3 |
| 20260502101346 | 28 | 150 | 0.0 | 0.0 | 0.00 | 0.00 | 0.00 | 93 | 1018.3 |
| 20260502100847 | 28 | 150 | 0.0 | 0.0 | 0.00 | 0.00 | 0.00 | 93 | 1018.3 |
| 20260502100345 | 28 | 150 | 0.0 | 0.0 | 0.00 | 0.00 | 0.00 | 93 | 1018.3 |
| 20260502100118 | 28 | 150 | 0.0 | 0.0 | 0.00 | 0.00 | 0.00 | 93 | 1018.3 |
| 20260502090839 | 29 | 150 | 0.0 | 0.0 | 0.00 | 0.00 | 0.00 | 93 | 1018.0 |
| 20260502090608 | 29 | 150 | 0.0 | 0.0 | 0.00 | 0.00 | 0.00 | 92 | 1018.0 |
| 20260502071323 | 30 | 150 | 0.0 | 0.0 | 0.00 | 0.00 | 0.00 | 90 | 1018.2 |
| 20260502070821 | 31 | 150 | 0.0 | 0.0 | 0.00 | 0.00 | 0.00 | 90 | 1018.3 |
| 20260502070552 | 31 | 150 | 0.0 | 0.0 | 0.00 | 0.00 | 0.00 | 90 | 1018.3 |
| 20260502065818 | 31 | 150 | 0.0 | 0.0 | 0.00 | 0.00 | 0.00 | 90 | 1018.3 |
| 20260502065321 | 31 | 150 | 0.0 | 0.0 | 0.00 | 0.00 | 0.00 | 90 | 1018.3 |
| 20260502064818 | 31 | 150 | 0.0 | 0.0 | 0.00 | 0.00 | 0.00 | 90 | 1018.4 |
| 20260502064317 | 32 | 150 | 0.0 | 0.0 | 0.00 | 0.00 | 0.00 | 90 | 1018.4 |
| 20260502063814 | 31 | 150 | 0.0 | 0.0 | 0.00 | 0.00 | 0.00 | 89 | 1018.4 |
| 20260502063314 | 32 | 150 | 0.0 | 0.0 | 0.00 | 0.00 | 0.00 | 89 | 1018.5 |
| 20260502062815 | 32 | 150 | 0.0 | 0.0 | 0.00 | 0.00 | 0.00 | 89 | 1018.5 |
| 20260502062544 | 32 | 150 | 0.0 | 0.0 | 0.00 | 0.00 | 0.00 | 88 | 1018.5 |
| 20260502061817 | 33 | 150 | 0.0 | 0.0 | 0.00 | 0.00 | 0.00 | 87 | 1018.5 |
| 20260502061811 | 32 | 150 | 0.0 | 0.0 | 0.00 | 0.00 | 0.00 | 87 | 1018.5 |
| 20260502060814 | 33 | 150 | 0.0 | 0.0 | 0.00 | 0.00 | 0.00 | 87 | 1018.5 |
| 20260502060810 | 33 | 150 | 0.0 | 0.0 | 0.00 | 0.00 | 0.00 | 87 | 1018.5 |
| 20260502055805 | 34 | 150 | 0.0 | 0.0 | 0.00 | 0.00 | 0.00 | 87 | 1018.5 |
| 20260502055259 | 34 | 150 | 0.0 | 0.0 | 0.00 | 0.00 | 0.00 | 88 | 1018.5 |
| 20260502054752 | 33 | 150 | 0.0 | 0.0 | 0.00 | 0.00 | 0.00 | 87 | 1018.5 |
| 20260502054245 | 34 | 150 | 0.0 | 0.0 | 0.00 | 0.00 | 0.00 | 87 | 1018.6 |
| 20260502053739 | 33 | 150 | 0.0 | 0.0 | 0.00 | 0.00 | 0.00 | 87 | 1018.6 |
| 20260502053233 | 33 | 150 | 0.0 | 0.0 | 0.00 | 0.00 | 0.00 | 86 | 1018.6 |
| 20260502052727 | 33 | 150 | 0.0 | 0.0 | 0.00 | 0.00 | 0.00 | 87 | 1018.6 |
| 20260502052453 | 33 | 150 | 0.0 | 0.0 | 0.00 | 0.00 | 0.00 | 87 | 1018.5 |
| 20260502051715 | 33 | 150 | 0.0 | 0.0 | 0.00 | 0.00 | 0.00 | 86 | 1018.5 |
| 20260502051209 | 33 | 150 | 0.0 | 0.0 | 0.00 | 0.00 | 0.00 | 86 | 1018.5 |
| 20260502050936 | 33 | 150 | 0.0 | 0.0 | 0.00 | 0.00 | 0.00 | 85 | 1018.5 |
| 20260502050159 | 33 | 150 | 0.0 | 0.0 | 0.00 | 0.00 | 0.00 | 84 | 1018.6 |
| 20260502045652 | 34 | 150 | 0.0 | 0.0 | 0.00 | 0.00 | 0.00 | 83 | 1018.6 |
| 20260502045145 | 34 | 150 | 0.0 | 0.0 | 0.00 | 0.00 | 0.00 | 84 | 1018.5 |
| 20260502044639 | 34 | 150 | 0.0 | 0.0 | 0.00 | 0.00 | 0.00 | 84 | 1018.5 |
| 20260502044133 | 34 | 151 | 0.0 | 0.0 | 0.00 | 0.00 | 0.00 | 86 | 1018.5 |
| 20260502043629 | 33 | 150 | 0.0 | 0.0 | 0.00 | 0.00 | 0.00 | 84 | 1018.5 |
| 20260502043122 | 33 | 151 | 0.0 | 0.0 | 0.00 | 0.00 | 0.00 | 84 | 1018.5 |
| 20260502042620 | 33 | 151 | 0.0 | 0.0 | 0.00 | 0.00 | 0.00 | 81 | 1018.5 |
| 20260502042117 | 33 | 150 | 0.0 | 0.0 | 0.00 | 0.00 | 0.00 | 81 | 1018.5 |
| 20260502041615 | 34 | 150 | 0.0 | 0.0 | 0.00 | 0.00 | 0.00 | 80 | 1018.5 |
| 20260502041112 | 34 | 150 | 0.0 | 0.0 | 0.00 | 0.00 | 0.00 | 80 | 1018.5 |
| 20260502040611 | 35 | 150 | 0.0 | 0.0 | 0.00 | 0.00 | 0.00 | 80 | 1018.5 |
| 20260502040110 | 35 | 151 | 0.0 | 0.0 | 0.00 | 0.00 | 0.00 | 80 | 1018.5 |
| 20260502035612 | 35 | 151 | 0.0 | 0.0 | 0.00 | 0.00 | 0.00 | 80 | 1018.5 |
| 20260502035108 | 35 | 150 | 0.0 | 0.0 | 0.00 | 0.00 | 0.00 | 79 | 1018.6 |
| 20260502034845 | 36 | 150 | 0.0 | 0.0 | 0.00 | 0.00 | 0.00 | 77 | 1018.6 |
| 20260502034608 | 36 | 150 | 0.0 | 0.0 | 0.00 | 0.00 | 0.00 | 77 | 1018.6 |
| 20260502033602 | 36 | 151 | 0.0 | 0.0 | 0.00 | 0.00 | 0.00 | 76 | 1018.6 |
| 20260502033103 | 37 | 150 | 0.0 | 0.0 | 0.00 | 0.00 | 0.00 | 76 | 1018.6 |
| 20260502032605 | 37 | 150 | 0.0 | 0.0 | 0.00 | 0.00 | 0.00 | 74 | 1018.6 |
| 20260502032100 | 37 | 150 | 0.0 | 0.0 | 0.00 | 0.00 | 0.00 | 74 | 1018.6 |
| 20260502031558 | 38 | 150 | 0.0 | 0.0 | 0.00 | 0.00 | 0.00 | 74 | 1018.5 |
| 20260502031057 | 38 | 150 | 0.0 | 0.0 | 0.00 | 0.00 | 0.00 | 75 | 1018.5 |
| 20260502030600 | 39 | 150 | 0.0 | 0.0 | 0.00 | 0.00 | 0.00 | 72 | 1018.6 |
| 20260502030329 | 39 | 150 | 0.0 | 0.0 | 0.00 | 0.00 | 0.00 | 66 | 1018.5 |
| 20260502025558 | 40 | 150 | 0.0 | 0.0 | 0.00 | 0.00 | 0.00 | 65 | 1018.6 |
| 20260502025057 | 41 | 151 | 0.0 | 0.0 | 0.00 | 0.00 | 0.00 | 65 | 1018.6 |
| 20260502024924 | 41 | 150 | 0.0 | 0.0 | 0.00 | 0.00 | 0.00 | 63 | 1018.5 |
| 20260502024836 | 41 | 150 | 0.0 | 0.0 | 0.00 | 0.00 | 0.00 | 63 | 1018.6 |
| 20260502023539 | 41 | 150 | 0.0 | 0.0 | 0.00 | 0.00 | 0.00 | 61 | 1018.5 |
| 20260502023032 | 42 | 151 | 0.0 | 0.0 | 0.00 | 0.00 | 0.00 | 60 | 1018.5 |
| 20260502022529 | 42 | 150 | 0.0 | 0.0 | 0.00 | 0.00 | 0.00 | 60 | 1018.5 |
| 20260502022030 | 42 | 150 | 0.0 | 0.0 | 0.00 | 0.00 | 0.00 | 60 | 1018.5 |
| 20260502021528 | 42 | 151 | 0.0 | 0.0 | 0.00 | 0.00 | 0.00 | 58 | 1018.4 |
| 20260502021302 | 42 | 150 | 0.0 | 0.0 | 0.00 | 0.00 | 0.00 | 59 | 1018.4 |
| 20260502020528 | 43 | 172 | 0.0 | 0.0 | 0.00 | 0.00 | 0.00 | 57 | 1018.3 |
| 20260502020027 | 44 | 172 | 0.0 | 0.0 | 0.00 | 0.00 | 0.00 | 55 | 1018.3 |
| 20260502015524 | 44 | 172 | 0.0 | 0.0 | 0.00 | 0.00 | 0.00 | 54 | 1018.2 |
| 20260502015255 | 44 | 172 | 0.0 | 0.0 | 0.00 | 0.00 | 0.00 | 54 | 1018.2 |
| 20260502014522 | 45 | 172 | 0.0 | 0.0 | 0.00 | 0.00 | 0.00 | 53 | 1018.1 |
| 20260502014023 | 45 | 172 | 0.0 | 0.0 | 0.00 | 0.00 | 0.00 | 51 | 1018.0 |
| 20260502013522 | 46 | 172 | 0.0 | 0.0 | 0.00 | 0.00 | 0.00 | 52 | 1018.0 |
| 20260502013255 | 46 | 172 | 0.0 | 0.0 | 0.00 | 0.00 | 0.00 | 52 | 1017.9 |
| 20260502012520 | 46 | 172 | 0.0 | 0.0 | 0.00 | 0.00 | 0.00 | 49 | 1017.9 |
| 20260502012021 | 47 | 172 | 0.0 | 0.0 | 0.00 | 0.00 | 0.00 | 50 | 1017.9 |
| 20260502011519 | 47 | 172 | 0.0 | 0.0 | 0.00 | 0.00 | 0.00 | 50 | 1017.9 |
| 20260502011022 | 48 | 172 | 0.0 | 1.0 | 0.00 | 0.00 | 0.00 | 48 | 1017.9 |
| 20260502010517 | 49 | 172 | 0.0 | 1.0 | 0.00 | 0.00 | 0.00 | 48 | 1017.9 |
| 20260502010017 | 49 | 160 | 0.0 | 1.0 | 0.00 | 0.00 | 0.00 | 46 | 1017.9 |
| 20260502005517 | 51 | 158 | 0.0 | 0.0 | 0.00 | 0.00 | 0.00 | 45 | 1017.8 |
| 20260502005243 | 51 | 149 | 0.0 | 0.0 | 0.00 | 0.00 | 0.00 | 44 | 1017.8 |
| 20260502004505 | 52 | 136 | 0.0 | 0.0 | 0.00 | 0.00 | 0.00 | 41 | 1017.8 |
| 20260502004232 | 53 | 158 | 0.0 | 1.0 | 0.00 | 0.00 | 0.00 | 39 | 1017.8 |
| 20260502003455 | 53 | 166 | 0.0 | 1.0 | 0.00 | 0.00 | 0.00 | 36 | 1017.7 |
| 20260502002947 | 53 | 156 | 0.0 | 0.0 | 0.00 | 0.00 | 0.00 | 37 | 1017.8 |
| 20260502002441 | 53 | 51 | 0.0 | 0.0 | 0.00 | 0.00 | 0.00 | 37 | 1017.9 |
| 20260502001935 | 53 | 167 | 0.0 | 0.0 | 0.00 | 0.00 | 0.00 | 40 | 1017.9 |
| 20260502001700 | 53 | 153 | 0.0 | 0.0 | 0.00 | 0.00 | 0.00 | 41 | 1017.9 |
| 20260502000923 | 53 | 154 | 0.0 | 0.0 | 0.00 | 0.00 | 0.00 | 39 | 1017.9 |
| 20260502000417 | 53 | 169 | 0.0 | 0.0 | 0.00 | 0.00 | 0.00 | 40 | 1017.9 |
| 20260501235911 | 54 | 105 | 0.0 | 2.0 | 0.00 | 0.00 | 0.00 | 35 | 1017.9 |
| 20260501235404 | 54 | 359 | 0.0 | 2.0 | 0.00 | 0.00 | 0.00 | 33 | 1017.9 |
| 20260501234859 | 54 | 354 | 0.0 | 2.0 | 0.00 | 0.00 | 0.00 | 31 | 1017.9 |
| 20260501234356 | 55 | 351 | 0.0 | 2.0 | 0.00 | 0.00 | 0.00 | 32 | 1017.9 |
| 20260501233855 | 54 | 6 | 0.0 | 1.0 | 0.00 | 0.00 | 0.00 | 34 | 1017.9 |
| 20260501233355 | 54 | 4 | 0.0 | 2.0 | 0.00 | 0.00 | 0.00 | 34 | 1017.9 |
| 20260501232852 | 54 | 113 | 0.0 | 2.0 | 0.00 | 0.00 | 0.00 | 36 | 1017.9 |
| 20260501232351 | 54 | 11 | 0.0 | 2.0 | 0.00 | 0.00 | 0.00 | 33 | 1017.9 |
| 20260501232118 | 55 | 180 | 0.0 | 2.0 | 0.00 | 0.00 | 0.00 | 37 | 1017.9 |
| 20260501231348 | 55 | 253 | 1.0 | 4.0 | 0.00 | 0.00 | 0.00 | 34 | 1017.9 |
| 20260501230849 | 55 | 0 | 1.0 | 5.0 | 0.00 | 0.00 | 0.00 | 31 | 1017.9 |
| 20260501230618 | 56 | 351 | 1.0 | 5.0 | 0.00 | 0.00 | 0.00 | 30 | 1017.9 |
| 20260501225847 | 56 | 146 | 1.0 | 4.0 | 0.00 | 0.00 | 0.00 | 31 | 1017.8 |
| 20260501225348 | 57 | 110 | 1.0 | 4.0 | 0.00 | 0.00 | 0.00 | 28 | 1017.9 |
| 20260501224848 | 58 | 316 | 1.0 | 5.0 | 0.00 | 0.00 | 0.00 | 29 | 1017.9 |
| 20260501224346 | 57 | 343 | 1.0 | 5.0 | 0.00 | 0.00 | 0.00 | 29 | 1017.9 |
| 20260501223846 | 58 | 359 | 1.0 | 4.0 | 0.00 | 0.00 | 0.00 | 28 | 1017.9 |
| 20260501223346 | 59 | 358 | 1.0 | 8.0 | 0.00 | 0.00 | 0.00 | 28 | 1017.9 |
| 20260501222846 | 59 | 75 | 1.0 | 8.0 | 0.00 | 0.00 | 0.00 | 28 | 1017.9 |
| 20260501222346 | 59 | 167 | 1.0 | 3.0 | 0.00 | 0.00 | 0.00 | 32 | 1017.9 |
| 20260501221847 | 58 | 226 | 1.0 | 4.0 | 0.00 | 0.00 | 0.00 | 37 | 1018.0 |
| 20260501221341 | 57 | 335 | 1.0 | 4.0 | 0.00 | 0.00 | 0.00 | 29 | 1017.9 |
| 20260501220834 | 58 | 131 | 1.0 | 4.0 | 0.00 | 0.00 | 0.00 | 30 | 1017.9 |
| 20260501220329 | 58 | 291 | 1.0 | 5.0 | 0.00 | 0.00 | 0.00 | 27 | 1018.0 |
| 20260501215823 | 59 | 359 | 2.0 | 6.0 | 0.00 | 0.00 | 0.00 | 28 | 1018.0 |
| 20260501215317 | 59 | 278 | 2.0 | 7.0 | 0.00 | 0.00 | 0.00 | 28 | 1018.0 |
| 20260501214811 | 60 | 72 | 1.0 | 6.0 | 0.00 | 0.00 | 0.00 | 31 | 1017.8 |
| 20260501214305 | 60 | 329 | 1.0 | 4.0 | 0.00 | 0.00 | 0.00 | 31 | 1018.0 |
| 20260501213759 | 60 | 280 | 1.0 | 6.0 | 0.00 | 0.00 | 0.00 | 34 | 1017.9 |
| 20260501213253 | 60 | 252 | 1.0 | 6.0 | 0.00 | 0.00 | 0.00 | 32 | 1018.0 |
| 20260501212747 | 59 | 67 | 1.0 | 5.0 | 0.00 | 0.00 | 0.00 | 32 | 1018.1 |
| 20260501212241 | 58 | 5 | 1.0 | 5.0 | 0.00 | 0.00 | 0.00 | 29 | 1018.0 |
| 20260501211734 | 58 | 219 | 1.0 | 5.0 | 0.00 | 0.00 | 0.00 | 33 | 1018.0 |
| 20260501211229 | 58 | 152 | 1.0 | 5.0 | 0.00 | 0.00 | 0.00 | 36 | 1018.0 |
| 20260501210729 | 57 | 141 | 1.0 | 4.0 | 0.00 | 0.00 | 0.00 | 31 | 1018.2 |
| 20260501210459 | 57 | 340 | 1.0 | 5.0 | 0.00 | 0.00 | 0.00 | 29 | 1018.3 |
| 20260501205727 | 58 | 356 | 1.0 | 6.0 | 0.00 | 0.00 | 0.00 | 29 | 1018.3 |
| 20260501205229 | 59 | 4 | 1.0 | 6.0 | 0.00 | 0.00 | 0.00 | 29 | 1018.2 |
| 20260501204726 | 59 | 359 | 1.0 | 8.0 | 0.00 | 0.00 | 0.00 | 31 | 1018.3 |
| 20260501204459 | 58 | 166 | 1.0 | 6.0 | 0.00 | 0.00 | 0.00 | 34 | 1018.1 |
| 20260501203726 | 58 | 4 | 1.0 | 6.0 | 0.00 | 0.00 | 0.00 | 30 | 1018.3 |
| 20260501203226 | 58 | 336 | 0.0 | 4.0 | 0.00 | 0.00 | 0.00 | 28 | 1018.4 |
| 20260501202726 | 57 | 18 | 1.0 | 9.0 | 0.00 | 0.00 | 0.00 | 31 | 1018.4 |
| 20260501202225 | 57 | 17 | 1.0 | 9.0 | 0.00 | 0.00 | 0.00 | 30 | 1018.4 |
| 20260501201727 | 57 | 314 | 1.0 | 4.0 | 0.00 | 0.00 | 0.00 | 35 | 1018.4 |
| 20260501201225 | 56 | 202 | 1.0 | 3.0 | 0.00 | 0.00 | 0.00 | 36 | 1018.4 |
| 20260501200952 | 55 | 345 | 1.0 | 4.0 | 0.00 | 0.00 | 0.00 | 35 | 1018.4 |
| 20260501200222 | 55 | 215 | 1.0 | 4.0 | 0.00 | 0.00 | 0.00 | 34 | 1018.5 |
| 20260501195723 | 55 | 326 | 1.0 | 3.0 | 0.00 | 0.00 | 0.00 | 32 | 1018.6 |
| 20260501195221 | 55 | 353 | 1.0 | 11.0 | 0.00 | 0.00 | 0.00 | 36 | 1018.6 |
| 20260501194721 | 55 | 47 | 1.0 | 11.0 | 0.00 | 0.00 | 0.00 | 35 | 1018.6 |
| 20260501194218 | 55 | 136 | 1.0 | 3.0 | 0.00 | 0.00 | 0.00 | 38 | 1018.6 |
| 20260501193718 | 54 | 302 | 1.0 | 4.0 | 0.00 | 0.00 | 0.00 | 36 | 1018.5 |
| 20260501193216 | 54 | 245 | 2.0 | 4.0 | 0.00 | 0.00 | 0.00 | 33 | 1018.7 |
| 20260501192717 | 54 | 8 | 2.0 | 5.0 | 0.00 | 0.00 | 0.00 | 36 | 1018.7 |
| 20260501192446 | 53 | 129 | 2.0 | 5.0 | 0.00 | 0.00 | 0.00 | 39 | 1018.6 |
| 20260501191716 | 53 | 25 | 2.0 | 5.0 | 0.00 | 0.00 | 0.00 | 35 | 1018.7 |
| 20260501191215 | 54 | 350 | 1.0 | 6.0 | 0.00 | 0.00 | 0.00 | 34 | 1018.7 |
| 20260501190716 | 53 | 191 | 1.0 | 6.0 | 0.00 | 0.00 | 0.00 | 38 | 1018.7 |
| 20260501190215 | 53 | 202 | 1.0 | 6.0 | 0.00 | 0.00 | 0.00 | 39 | 1018.8 |
| 20260501185949 | 52 | 333 | 1.0 | 6.0 | 0.00 | 0.00 | 0.00 | 38 | 1018.9 |
| 20260501185215 | 53 | 11 | 0.0 | 3.0 | 0.00 | 0.00 | 0.00 | 37 | 1018.8 |
| 20260501184717 | 54 | 131 | 0.0 | 2.0 | 0.00 | 0.00 | 0.00 | 36 | 1018.8 |
| 20260501184214 | 54 | 226 | 0.0 | 4.0 | 0.00 | 0.00 | 0.00 | 43 | 1018.7 |
| 20260501183713 | 53 | 319 | 1.0 | 5.0 | 0.00 | 0.00 | 0.00 | 37 | 1018.7 |
| 20260501183212 | 53 | 330 | 1.0 | 5.0 | 0.00 | 0.00 | 0.00 | 39 | 1018.7 |
| 20260501182713 | 52 | 333 | 1.0 | 4.0 | 0.00 | 0.00 | 0.00 | 38 | 1018.8 |
| 20260501182212 | 52 | 356 | 1.0 | 3.0 | 0.00 | 0.00 | 0.00 | 38 | 1018.8 |
| 20260501181714 | 52 | 3 | 1.0 | 5.0 | 0.00 | 0.00 | 0.00 | 41 | 1018.9 |
| 20260501181212 | 52 | 342 | 1.0 | 5.0 | 0.00 | 0.00 | 0.00 | 36 | 1018.9 |
| 20260501180713 | 52 | 334 | 1.0 | 3.0 | 0.00 | 0.00 | 0.00 | 40 | 1018.9 |
| 20260501180446 | 51 | 5 | 1.0 | 6.0 | 0.00 | 0.00 | 0.00 | 40 | 1019.0 |
| 20260501175713 | 51 | 349 | 1.0 | 6.0 | 0.00 | 0.00 | 0.00 | 41 | 1019.1 |
| 20260501175211 | 50 | 198 | 2.0 | 5.0 | 0.00 | 0.00 | 0.00 | 39 | 1019.1 |
| 20260501174710 | 51 | 356 | 2.0 | 4.0 | 0.00 | 0.00 | 0.00 | 39 | 1019.1 |
| 20260501174211 | 51 | 340 | 1.0 | 5.0 | 0.00 | 0.00 | 0.00 | 40 | 1019.0 |
| 20260501173709 | 51 | 333 | 1.0 | 5.0 | 0.00 | 0.00 | 0.00 | 39 | 1019.1 |
| 20260501173210 | 51 | 197 | 1.0 | 4.0 | 0.00 | 0.00 | 0.00 | 41 | 1019.0 |
| 20260501172940 | 51 | 330 | 1.0 | 7.0 | 0.00 | 0.00 | 0.00 | 43 | 1019.2 |
| 20260501172441 | 49 | 358 | 2.0 | 7.0 | 0.00 | 0.00 | 0.00 | 45 | 1019.2 |
| 20260501171708 | 49 | 34 | 2.0 | 6.0 | 0.00 | 0.00 | 0.00 | 41 | 1019.3 |
| 20260501171207 | 50 | 19 | 1.0 | 6.0 | 0.00 | 0.00 | 0.00 | 40 | 1019.2 |